This is the latest recevied weather packets stored in our database for station/object IW2LSY-11. If no packets are shown the sender has not sent any weather packets the latest 10 day(s).
| Time | Temp. | Humidity | Pressure | Rain* | Wind** | Luminosity | Snow |
|---|---|---|---|---|---|---|---|
| 1777910414 | 22.78° C | 36% | 1015.1 hPa | - | - | 438 W/m² | - |
| 1777909814 | 22.78° C | 36% | 1015.1 hPa | - | - | 439 W/m² | - |
| 1777909214 | 22.78° C | 36% | 1015.3 hPa | - | - | 440 W/m² | - |
| 1777908614 | 23.33° C | 37% | 1015.3 hPa | - | - | 441 W/m² | - |
| 1777908015 | 22.22° C | 37% | 1015.3 hPa | - | - | 442 W/m² | - |
| 1777907415 | 23.33° C | 35% | 1015.4 hPa | - | - | 446 W/m² | - |
| 1777906815 | 22.78° C | 31% | 1015.5 hPa | - | - | 446 W/m² | - |
| 1777906215 | 22.78° C | 31% | 1015.8 hPa | - | - | 447 W/m² | - |
| 1777905604 | 22.22° C | 33% | 1016.2 hPa | - | - | 448 W/m² | - |
| 1777905004 | 22.22° C | 31% | 1016.4 hPa | - | - | 448 W/m² | - |
| 1777904404 | 21.67° C | 30% | 1016.4 hPa | - | - | 448 W/m² | - |
| 1777903805 | 22.78° C | 31% | 1016.4 hPa | - | - | 449 W/m² | - |
| 1777903205 | 23.33° C | 31% | 1016.4 hPa | - | - | 450 W/m² | - |
| 1777902606 | 22.22° C | 31% | 1016.6 hPa | - | - | 449 W/m² | - |
| 1777902006 | 22.78° C | 31% | 1016.6 hPa | - | - | 450 W/m² | - |
| 1777901407 | 22.78° C | 30% | 1016.6 hPa | - | - | 451 W/m² | - |
| 1777900807 | 22.22° C | 31% | 1016.6 hPa | - | - | 451 W/m² | - |
| 1777900208 | 22.78° C | 31% | 1016.6 hPa | - | - | 451 W/m² | - |
| 1777899608 | 22.78° C | 32% | 1016.6 hPa | - | - | 453 W/m² | - |
| 1777899008 | 22.22° C | 32% | 1016.6 hPa | - | - | 453 W/m² | - |
| 1777898409 | 22.78° C | 31% | 1016.7 hPa | - | - | 455 W/m² | - |
| 1777897809 | 22.78° C | 30% | 1016.8 hPa | - | - | 455 W/m² | - |
| 1777897210 | 22.22° C | 31% | 1016.7 hPa | - | - | 457 W/m² | - |
| 1777896611 | 22.22° C | 31% | 1016.7 hPa | - | - | 457 W/m² | - |
| 1777896011 | 22.22° C | 30% | 1016.7 hPa | - | - | 458 W/m² | - |
* Rain since midnight (hover to see other rain measurements)
** Current wind speed in m/s (hover to see current wind gust speed)